Location: *
(38.9555°S, 57.3572°E)
Time: 01:49:14
(UTC+00:00)

Cosmos 1553 Rocket - Pass Details

Date: 15 July 2020
Orbit: 941 x 1008 km, 82.9° (Epoch: 06 August)

Event Time Altitude Azimuth Distance (km) Brightness Sun altitude
Rises 14:32:38 0° 355° (N) 3,664 7.3 -16.2°
Reaches altitude 10° 14:35:06 10° 355° (N) 2,734 6.6 -16.7°
Maximum altitude 14:41:25 89° 264° (W) 1,008 4.0 -17.9°
Drops below altitude 10° 14:47:54 10° 173° (S) 2,807 6.2 -19.1°
Sets 14:50:28 0° 173° (S) 3,769 6.9 -19.6°
